Location: Frizzleburg
(41.0764°N, 80.4548°W)
Time: 21:14:08
(UTC+00:00)

MSX - Pass Details

Date: 17 November 2019
Orbit: 895 x 906 km, 98.8° (Epoch: 12 December)

Event Time Altitude Azimuth Distance (km) Brightness Sun altitude
Rises 09:49:19 0° 9° (N) 3,526 7.0 -26.7°
Reaches altitude 10° 09:51:46 10° 6° (N) 2,583 6.2 -26.3°
Enters shadow 09:56:29 52° 324° (NW) 1,114 4.0 -25.4°
